CZ-6A DEB, 61480

Orbit data source: Space-Track

CZ-6A DEB, 61480 is space debris in LEO originally from a launch on Tue, 06 Aug 2024 UTC launched from the Taiyaun Space Center, China (TSC). Debris objects in space refer to the collection of defunct objects orbiting the Earth. Examples of debris include non-operational satellites, rocket bodies, and fragments generated from explosions, collisions, or faulty payload assembly.

Loading next visibility...
CZ-6A DEB details
Identifier
61480, 2024-140AAN
Orbit
LEO
Last TLE update12 hours ago
Origin
Flag of CNCNSA (CN / PRC)
ManufacturerSAST
MissionSpacecraft
Bus & MotorUnknown
MassUnknown
Launch date (UTC)
2024-08-06 (6 months ago)
Launch vehicleUnknown
Launch site
Taiyaun Space Center, China (TSC)
Object type
Payload
Rocket body
Debris
Shape & HBRUnknown
Radar Cross SectionSmall (<0.1 m²)

Expand to show TLE details & history

TLE from 12 hours ago
0 CZ-6A DEB
1 61480U 24140AAN 25035.77344037  .00039673  00000-0  45173-2 0  9990
2 61480  89.3945 338.0266 0137438 114.8119 246.7472 14.79355887 22472
Epoch: 2025-02-04T18:33Z
Definitive object data (Epoch: 2025-02-04T18:33:45.247Z)
Latitude-0.00006°
Longitude-75.58585°
Altitude673.649 km
Speed7.499 km/s
True Right ascension22h 32m 06s
True Declination0° 00' 00"
Sunlit
Object was in daylight at TLE epoch
Visualization TLE readout
Latitude10.59308°
Longitude104.26338°
Altitude579.328 km
Speed7.601 km/s
Apparent Right ascension13h 19m 37s
Apparent Declination-39° 57' 54"
Sunlit
Object is in full shadow
Visualization observer readout
Local Sidereal Time08:42:50
Azimuth132.966° SE
Elevation-11.734°
Doppler factor1
Orbital elements
Apogee altitude724.516 km
Perigee altitude531.928 km
Semi-major axis7,006.359 km
Eccentricity0.0137438
Inclination89.3945°
RAAN338.0266°
Arg. of periapsis114.8119°
True anomaly245.31011°
Mean anomaly246.7472°
Eccentric anomaly246.02766°
Mean motion3.70088 °/min
BSTAR0.0045173
Orbital period97.27 mins
Loading maneuver chart data...
Loading historical data...
Loading historical data...
Loading historical data...
Loading historical data...
Loading historical data...
Loading historical data...
Loading historical data...

CZ-6A DEB Visibility forecast

Observer location: undefined°, undefined

Span
Click to sort rows by Start time (UTC) header in descending order
Start Az.
Max El. time (UTC)
Max El. Az.
Max El.
End time (UTC)
End Az.
7 mins2025-02-05 08:06:37.621Z11.865° NNE2025-02-05 08:10:37.621Z111.154° ESE37.959°2025-02-05 08:13:37.621Z165.49° S
6 mins2025-02-05 20:40:37.621Z196.39° SSW2025-02-05 20:42:37.621Z244.848° WSW40.669°2025-02-05 20:46:37.621Z350.049° N
|